Zurück zum Katalog

FUSION 1

AktivKommunikationSSO
NORAD 62674·PAYLOAD·🇯🇵 Japan
Dieser Satellitenname wurde noch nicht durch offizielle Quellen bestätigt.

Gestartet Jan 14, 2025 von Vandenberg Space Force Base

Loading…

Nächste Überflüge (nächste 24 Stunden)

TLE

AktuellSource: Space-Track

Epoche: Sep 13, 2026, 16:20 UTC

1 62674U 25009BT  26256.68116425  .00009316  00000-0  30556-3 0  9996
2 62674  97.4009 338.9513 0004494  16.9880 343.1512 15.31826535150106

Verfolge FUSION 1 in Echtzeit mit AllMySat

Download on the App Store